Terug naar catalogus

METEOR 2-20 DEB

ActiefPO
NORAD 59997·DEBRIS·🇷🇺 Russia

Gelanceerd Sep 28, 1990 vanaf Plesetsk Cosmodrome

Loading…

Volgende Passages (komende 24 uur)

TLE

VersSource: Space-Track

Epoch: Sep 14, 2026, 01:39 UTC

1 59997U 90086G   26257.06884631  .00001245  00000-0  98203-3 0  9997
2 59997  82.5195 121.3991 0020512  85.3910 274.9596 13.90829619147465

Volg METEOR 2-20 DEB in realtime met AllMySat

Download on the App Store